Previsão horária em Alida

Hoje, 19 Junho, Sábado

Tempo Temperatura Precipitação Vento Pressão Humidade
00:00 +13°C° 0 mm 2 m/s 709 mmHg 84%
01:00 +12°C° 0 mm 2 m/s 709 mmHg 85%
02:00 +12°C° 0 mm 2 m/s 709 mmHg 87%
03:00 +12°C° 0 mm 2 m/s 709 mmHg 87%
04:00 +12°C° 0 mm 2 m/s 709 mmHg 87%
05:00 +12°C° 0 mm 2 m/s 709 mmHg 87%
06:00 +13°C° 0 mm 3 m/s 709 mmHg 79%
07:00 +15°C° 0 mm 4 m/s 709 mmHg 71%
08:00 +18°C° 0 mm 4 m/s 709 mmHg 63%
09:00 +19°C° 0 mm 4 m/s 708 mmHg 60%
10:00 +20°C° 0 mm 4 m/s 708 mmHg 56%
11:00 +21°C° 0 mm 4 m/s 708 mmHg 52%
12:00 +21°C° 0 mm 4 m/s 707 mmHg 51%
13:00 +21°C° 0 mm 4 m/s 707 mmHg 50%
14:00 +22°C° 0 mm 3 m/s 707 mmHg 49%
15:00 +21°C° 0 mm 4 m/s 706 mmHg 53%
16:00 +20°C° 0 mm 4 m/s 706 mmHg 57%
17:00 +20°C° 0 mm 4 m/s 706 mmHg 61%
18:00 +18°C° 0.9 mm 4 m/s 706 mmHg 71%
19:00 +16°C° 0.9 mm 3 m/s 706 mmHg 82%
20:00 +13°C° 0.9 mm 3 m/s 706 mmHg 93%
21:00 +12°C° 0.5 mm 3 m/s 706 mmHg 92%
22:00 +12°C° 0.5 mm 3 m/s 706 mmHg 92%
23:00 +11°C° 0.5 mm 3 m/s 706 mmHg 91%

Amanhã, 20 Junho, Domingo

Tempo Temperatura Precipitação Vento Pressão Humidade
00:00 +11°C° 0 mm 3 m/s 706 mmHg 92%
01:00 +10°C° 0 mm 3 m/s 706 mmHg 92%
02:00 +10°C° 0 mm 4 m/s 706 mmHg 93%
03:00 +10°C° 0 mm 4 m/s 706 mmHg 92%
04:00 +10°C° 0 mm 4 m/s 707 mmHg 91%
05:00 +10°C° 0 mm 4 m/s 707 mmHg 91%
06:00 +12°C° 0 mm 5 m/s 707 mmHg 83%
07:00 +13°C° 0 mm 6 m/s 708 mmHg 76%
08:00 +15°C° 0 mm 7 m/s 708 mmHg 69%
09:00 +15°C° 0 mm 7 m/s 709 mmHg 62%
10:00 +16°C° 0 mm 7 m/s 709 mmHg 55%
11:00 +17°C° 0 mm 7 m/s 709 mmHg 47%
12:00 +17°C° 0 mm 7 m/s 710 mmHg 49%
13:00 +16°C° 0 mm 6 m/s 710 mmHg 51%
14:00 +15°C° 0 mm 6 m/s 710 mmHg 53%
15:00 +15°C° 0 mm 6 m/s 710 mmHg 53%
16:00 +15°C° 0 mm 6 m/s 711 mmHg 53%
17:00 +15°C° 0 mm 6 m/s 711 mmHg 52%
18:00 +13°C° 0 mm 5 m/s 711 mmHg 56%
19:00 +12°C° 0 mm 4 m/s 711 mmHg 59%
20:00 +10°C° 0 mm 3 m/s 712 mmHg 62%
21:00 +9°C° 0 mm 3 m/s 712 mmHg 65%
22:00 +8°C° 0 mm 3 m/s 712 mmHg 69%
23:00 +7°C° 0 mm 3 m/s 712 mmHg 72%

Depois de amanhã, 21 Junho, Segunda-feira

Tempo Temperatura Precipitação Vento Pressão Humidade
00:00 +5°C° 0 mm 3 m/s 712 mmHg 71%
01:00 +6°C° 0 mm 2 m/s 712 mmHg 70%
02:00 +5°C° 0 mm 2 m/s 712 mmHg 69%
03:00 +6°C° 0 mm 2 m/s 712 mmHg 69%
04:00 +6°C° 0 mm 2 m/s 712 mmHg 69%
05:00 +7°C° 0 mm 2 m/s 712 mmHg 69%
06:00 +9°C° 0 mm 2 m/s 712 mmHg 64%
07:00 +12°C° 0 mm 2 m/s 712 mmHg 59%
08:00 +14°C° 0 mm 2 m/s 712 mmHg 54%
09:00 +14°C° 0 mm 3 m/s 712 mmHg 50%
10:00 +17°C° 0 mm 3 m/s 711 mmHg 46%
11:00 +18°C° 0 mm 3 m/s 711 mmHg 42%
12:00 +19°C° 0 mm 3 m/s 710 mmHg 40%
13:00 +20°C° 0 mm 4 m/s 710 mmHg 39%
14:00 +20°C° 0 mm 4 m/s 709 mmHg 37%
15:00 +20°C° 0 mm 4 m/s 708 mmHg 40%
16:00 +20°C° 0 mm 3 m/s 708 mmHg 43%
17:00 +21°C° 0 mm 3 m/s 707 mmHg 45%
18:00 +19°C° 0 mm 2 m/s 707 mmHg 50%
19:00 +17°C° 0 mm 2 m/s 706 mmHg 55%
20:00 +15°C° 0 mm 2 m/s 706 mmHg 59%
21:00 +14°C° 0 mm 1 m/s 706 mmHg 60%
22:00 +14°C° 0 mm 1 m/s 705 mmHg 61%
23:00 +12°C° 0 mm 0 m/s 705 mmHg 62%

22 Junho, Terça-feira

Tempo Temperatura Precipitação Vento Pressão Humidade
00:00 +12°C° 0 mm 0 m/s 705 mmHg 62%
01:00 +12°C° 0 mm 1 m/s 705 mmHg 63%
02:00 +12°C° 0 mm 1 m/s 705 mmHg 63%
03:00 +12°C° 0 mm 1 m/s 705 mmHg 63%
04:00 +12°C° 0 mm 1 m/s 705 mmHg 64%
05:00 +13°C° 0 mm 2 m/s 705 mmHg 64%
06:00 +15°C° 0 mm 1 m/s 705 mmHg 58%
07:00 +18°C° 0 mm 1 m/s 705 mmHg 52%
08:00 +20°C° 0 mm 1 m/s 706 mmHg 46%
09:00 +22°C° 0 mm 1 m/s 706 mmHg 43%
10:00 +23°C° 0 mm 1 m/s 706 mmHg 41%
11:00 +24°C° 0 mm 1 m/s 706 mmHg 38%
12:00 +25°C° 0 mm 2 m/s 706 mmHg 38%
13:00 +26°C° 0 mm 2 m/s 705 mmHg 38%
14:00 +26°C° 0 mm 2 m/s 705 mmHg 38%
15:00 +26°C° 0 mm 2 m/s 705 mmHg 39%
16:00 +27°C° 0 mm 2 m/s 704 mmHg 40%
17:00 +27°C° 0 mm 1 m/s 704 mmHg 41%
18:00 +25°C° 0 mm 2 m/s 704 mmHg 47%
19:00 +23°C° 0 mm 2 m/s 703 mmHg 53%
20:00 +20°C° 0 mm 3 m/s 703 mmHg 59%
21:00 +19°C° 0 mm 3 m/s 703 mmHg 61%
22:00 +18°C° 0 mm 3 m/s 703 mmHg 63%
23:00 +17°C° 0 mm 3 m/s 703 mmHg 65%

23 Junho, Quarta-feira

Tempo Temperatura Precipitação Vento Pressão Humidade
00:00 +17°C° 0 mm 3 m/s 702 mmHg 63%
01:00 +17°C° 0 mm 3 m/s 702 mmHg 62%
02:00 +17°C° 0 mm 3 m/s 702 mmHg 60%
03:00 +17°C° 0 mm 3 m/s 701 mmHg 59%
04:00 +18°C° 0 mm 3 m/s 701 mmHg 58%
05:00 +18°C° 0 mm 3 m/s 701 mmHg 57%
06:00 +21°C° 0 mm 3 m/s 701 mmHg 54%
07:00 +24°C° 0 mm 3 m/s 701 mmHg 51%
08:00 +26°C° 0 mm 4 m/s 701 mmHg 47%
09:00 +27°C° 0 mm 3 m/s 701 mmHg 44%
10:00 +29°C° 0 mm 3 m/s 702 mmHg 41%
11:00 +30°C° 0 mm 3 m/s 702 mmHg 38%
12:00 +31°C° 0 mm 3 m/s 702 mmHg 37%
13:00 +32°C° 0 mm 2 m/s 702 mmHg 36%
14:00 +32°C° 0 mm 2 m/s 702 mmHg 35%
15:00 +31°C° 0 mm 3 m/s 702 mmHg 42%
16:00 +30°C° 0 mm 4 m/s 702 mmHg 48%
17:00 +28°C° 0 mm 4 m/s 702 mmHg 55%
18:00 +26°C° 0.1 mm 4 m/s 702 mmHg 62%
19:00 +24°C° 0.1 mm 3 m/s 702 mmHg 69%
20:00 +21°C° 0.1 mm 2 m/s 702 mmHg 76%
21:00 +20°C° 0.8 mm 3 m/s 703 mmHg 82%
22:00 +19°C° 0.8 mm 3 m/s 703 mmHg 88%
23:00 +18°C° 0.8 mm 3 m/s 704 mmHg 93%

24 Junho, Quinta-feira

Tempo Temperatura Precipitação Vento Pressão Humidade
00:00 +18°C° 0.4 mm 3 m/s 704 mmHg 94%
01:00 +17°C° 0.4 mm 3 m/s 704 mmHg 95%
02:00 +17°C° 0.4 mm 2 m/s 704 mmHg 95%
03:00 +17°C° 0 mm 2 m/s 705 mmHg 93%
04:00 +17°C° 0 mm 2 m/s 705 mmHg 91%
05:00 +18°C° 0 mm 2 m/s 706 mmHg 88%
06:00 +19°C° 0 mm 3 m/s 706 mmHg 80%
07:00 +21°C° 0 mm 3 m/s 707 mmHg 72%
08:00 +24°C° 0 mm 3 m/s 707 mmHg 63%
09:00 +25°C° 0 mm 3 m/s 708 mmHg 56%
10:00 +27°C° 0 mm 3 m/s 708 mmHg 49%
11:00 +28°C° 0 mm 2 m/s 708 mmHg 43%
12:00 +29°C° 0 mm 3 m/s 708 mmHg 42%
13:00 +29°C° 0 mm 3 m/s 709 mmHg 41%
14:00 +30°C° 0 mm 3 m/s 709 mmHg 41%
15:00 +30°C° 0 mm 3 m/s 708 mmHg 43%
16:00 +29°C° 0 mm 2 m/s 708 mmHg 45%
17:00 +29°C° 0 mm 2 m/s 708 mmHg 47%
18:00 +26°C° 0.8 mm 2 m/s 708 mmHg 62%
19:00 +23°C° 0.8 mm 2 m/s 708 mmHg 76%
20:00 +19°C° 0.8 mm 2 m/s 708 mmHg 91%
21:00 +19°C° 0 mm 2 m/s 709 mmHg 90%
22:00 +19°C° 0 mm 2 m/s 709 mmHg 90%
23:00 +19°C° 0 mm 2 m/s 709 mmHg 89%
Mostrar mais